Date,TemperatureHighF,TemperatureAvgF,TemperatureLowF,DewpointHighF,DewpointAvgF,DewpointLowF,HumidityHigh,HumidityAvg,HumidityLow,PressureMaxIn,PressureMinIn,WindSpeedMaxMPH,WindSpeedAvgMPH,GustSpeedMaxMPH,PrecipitationSumIn
2013-10-3,62.0,47.9,35.0,39.0,32.6,28.0,90,61,29,0.00,40.00,12,6,19,0.00
2013-10-4,62.0,47.3,34.0,36.0,30.5,26.0,77,54,28,0.00,40.00,9,4,16,0.00
2013-10-5,63.0,50.1,40.0,37.0,33.0,30.0,73,54,31,0.00,40.00,9,4,16,0.00
2013-10-6,71.0,52.1,37.0,37.0,34.2,29.0,77,53,29,0.00,40.00,5,3,11,0.00
2013-10-7,65.0,52.0,42.0,39.0,34.0,28.0,76,53,30,0.00,40.00,20,8,28,0.00
2013-10-8,55.0,46.0,40.0,42.0,35.5,32.0,82,67,49,0.00,40.00,15,6,24,0.06
2013-10-9,60.0,47.9,37.0,37.0,32.9,29.0,79,58,38,0.00,40.00,7,4,12,0.04
2013-10-17,63.0,48.2,34.0,36.0,31.9,27.0,81,56,34,0.00,40.00,11,4,15,0.00
2013-10-18,63.0,47.0,33.0,38.0,33.0,28.0,84,61,34,0.00,40.00,6,3,10,0.00
2013-10-19,62.0,46.9,34.0,38.0,34.4,30.0,84,64,39,0.00,40.00,6,3,10,0.00
2013-10-20,69.0,50.9,36.0,42.0,37.4,32.0,85,63,36,0.00,40.00,7,3,10,0.00
2013-10-21,70.0,52.8,40.0,45.0,39.3,35.0,83,62,36,0.00,40.00,6,3,9,0.00
2013-10-22,69.0,52.5,39.0,44.0,39.9,35.0,87,65,37,0.00,40.00,5,2,10,0.00
2013-10-23,66.0,48.7,37.0,45.0,39.5,35.0,91,72,44,0.00,40.00,6,3,8,0.00
2013-10-24,62.0,47.4,36.0,45.0,39.7,34.0,93,76,50,0.00,40.00,5,2,7,0.00
2013-10-25,60.0,45.0,36.0,45.0,38.9,33.0,93,80,54,0.00,40.00,5,3,9,0.00
2013-10-26,59.0,44.0,35.0,46.0,38.7,33.0,94,83,57,0.00,40.00,6,3,8,0.00
2013-10-27,53.0,45.9,39.0,47.0,38.0,24.0,94,76,43,0.00,40.00,19,8,27,0.04
2013-10-28,53.0,45.9,41.0,24.0,17.3,-99.9,42,33,25,0.00,40.00,15,11,26,0.01
2013-10-29,53.0,39.0,28.0,25.0,20.0,16.0,68,48,28,0.00,40.00,6,4,12,0.00
2013-10-30,50.0,36.7,26.0,28.0,22.4,18.0,75,57,35,0.00,40.00,6,3,9,0.00
2013-10-31,59.0,43.9,34.0,35.0,29.7,23.0,80,59,39,0.00,40.00,9,3,11,0.00